Showing default

NUSAT-54(BRANCA MARQUES), 68442

Orbit data source: Space-Track

NUSAT-54(BRANCA MARQUES), 68442 is a payload satellite owned by URUGUS S.A. (AR) in SSO that was launched on Mon, 30 Mar 2026 UTC via an FALCON 9 launch vehicle from the Air Force Western Test Range (AFWTR). Payload-class satellites include a variety of spacecraft equipped with specific instruments for various scientific and technological missions. These include communications satellites like Starlink; space stations such as the ISS; scientific satellites like the Hubble; Earth observation satellites from companies like Planet Labs, Umbra, and HawkEye 360; GPS; miniature CubeSats for education and research; and military/defense satellites.

Loading next visibility...
Identifier
68442, 2026-067AC
Orbit
SSO
Country
Flag of ARAR / ARGN
Related business
Manufacturer
URUGUS S.A.
Mission
Operational Commercial Imaging
Bus & Motor
NEWSAT V, Unknown motor
Mass
41.5 kg wet, 38.5 kg dry
Launch date (UTC)
2026-03-30 (6 months ago)
Launch vehicle
FALCON 9
Launch site
Air Force Western Test Range (AFWTR)
Object type
Payload
Rocket body
Debris
Shape & HBR
Box, 1.0 m
Radar Cross Section
0.542 m², Medium (>0.1 m² and < 1m²)

Expand to show TLE details & history
Last TLE update: 5 hours ago

TLE from 5 hours ago
0 NUSAT-54(BRANCA MARQUES)
1 68442U 26067AC  26263.61535227  .00003621  00000-0  17856-3 0  9997
2 68442  97.4648 220.6540 0006252  94.4197 265.7752 15.18548724 26414
Epoch: 2026-09-20T14:46Z
TLE epoch observation values (Epoch: 2026-09-20T14:46:06.436Z)
Latitude
0.00004°
Longitude
-0.37981°
Altitude
513.633 km
Speed
7.607 km/s
True Right ascension
14h 42m 36s
True Declination
0° 00' 00"
Sunlit
Object was in daylight at epoch
Visualization orbit readout
Latitude
Unknown
Longitude
Unknown
Altitude
Unknown
Speed
Unknown
Apparent Right ascension
Unknown
Apparent Declination
Unknown
Sunlit
N/A
Visualization observer readout
Local Sidereal Time
12:54:46
Azimuth
Unknown
Elevation
Unknown
Doppler factor
Unknown
Orbital elements
Apogee altitude
511.501 km
Perigee altitude
502.892 km
Semi-major axis
6,885.333 km
Eccentricity
0.00063
Inclination
97.4648°
RAAN
220.654°
Arg. of periapsis
94.4197°
True anomaly
265.70376°
Mean anomaly
265.7752°
Eccentric anomaly
265.73948°
Mean motion
3.79888 °/min
Orbital period
94.76 mins
BSTAR
0.00017856
Loading maneuver chart data...
Computing Atmospheric mass density...
Loading historical data...
Loading historical data...
Loading historical data...
Loading historical data...
Loading historical data...
Loading historical data...
Loading historical data...

Documentation

Showing up to 5 results
|